Location: Domersleben
(52.0920°N, 11.4376°E)
Time: 19:16:22
(UTC+00:00)

Daily predictions for brighter satellites

Satellite Brightness Start Highest point End
(mag) Time Altitude Azimuth Time Altitude Azimuth Time Altitude Azimuth
Cosmos 1943 3.2 16:07:40 10° NNW 16:13:22 68° NE 16:19:00 10° SE
Spot 2 4.2 16:08:50 10° SSE 16:13:30 90° SE 16:17:55 10° NNW
Okean-O 4.1 16:12:15 10° E 16:14:59 16° NE 16:17:43 10° NNE
Meteor 1-24 Rocket 4.5 16:11:43 10° SE 16:16:10 28° E 16:20:38 10° NNE
Okean O Rocket 1.7 16:15:03 10° SSE 16:19:24 56° ENE 16:23:46 10° N
NOAA 6 4.3 16:15:20 10° SSE 16:20:29 77° WSW 16:25:40 10° NNW
Cosmos 1025 Rocket 3.1 16:17:41 10° S 16:22:01 87° W 16:26:25 10° N
Envisat 3.7 16:17:19 10° S 16:22:21 62° WSW 16:27:25 10° NNW
AQUARIUS 4.1 16:18:25 10° SSE 16:22:53 68° ENE 16:27:23 10° N
CZ-4 R/B 2.8 16:20:26 10° ESE 16:23:10 18° ENE 16:25:53 10° NNE
Cosmos 1908 3.6 16:19:22 10° NNW 16:23:14 72° W 16:27:05 10° S
Cosmos 1315 Rocket 3.1 16:19:28 10° N 16:23:16 43° ENE 16:27:05 10° SE
Cosmos 2082 Rocket 4.1 16:21:54 10° NNW 16:24:20 13° NNE 16:26:46 10° NE
Cosmos 968 Rocket 3.4 16:19:39 10° SSW 16:24:45 78° ESE 16:29:53 10° NNE
Cosmos 1833 Rocket 4.4 16:22:14 10° NNW 16:25:18 15° NNE 16:28:23 10° NE
Cosmos 2219 4.3 16:20:20 10° WSW 16:25:45 41° NW 16:31:10 10° NNE
H-2A R/B 2.5 16:25:51 10° SSE 16:29:52 83° WSW 16:34:05 10° NNW
ERS-2 4.1 16:29:04 10° ENE 16:30:14 11° E 16:31:23 10° ESE
Cosmos 1486 Rocket 4.0 16:25:24 10° SSW 16:30:39 82° ESE 16:35:54 10° NNE
NOSS 3-1 (C) 4.4 16:28:37 10° NW 16:34:56 40° NNE 16:42:20 10° E
Cosmos 1674 3.0 16:32:14 10° SSW 16:36:02 70° WNW 16:39:54 10° N
Tsikada Rocket 4.0 16:30:18 10° S 16:36:37 85° E 16:42:55 10° N
Cosmos 2227 4.5 16:31:20 10° S 16:36:44 50° ESE 16:42:13 10° NE
Cosmos 1606 Rocket 3.7 16:34:17 10° N 16:38:34 50° ENE 16:42:51 10° SSE
ADEOS Rocket 3.8 16:34:45 10° N 16:40:49 50° WNW 16:46:20 10° SW
H-2A R/B 2.2 16:36:26 10° NNE 16:40:54 59° ESE 16:45:14 10° S
Cosmos 2227 Rocket 3.4 16:36:06 10° WSW 16:41:23 39° NW 16:46:42 10° NNE
CZ-4C R/B 2.3 16:37:09 10° SW 16:42:19 83° NW 16:48:38 10° NE
IRS-1C Rocket 4.5 16:37:52 10° SE 16:42:45 41° ENE 16:47:40 10° N
Cosmos 2142 Rocket 4.5 16:36:52 10° N 16:43:02 65° ENE 16:49:08 10° SSE
YAOGAN 1 3.6 16:39:49 10° ESE 16:43:18 24° ENE 16:46:49 10° N
Cosmos 2344 4.4 16:40:05 10° NW 16:48:01 48° NNE 16:58:21 10° E
USA 229 DEB 4.4 16:44:45 10° NW 16:51:16 39° NNE 16:57:09 14° E
Lacrosse 5 1.9 16:46:15 10° WNW 16:51:18 68° NNE 16:56:14 11° ESE
USA 229 4.4 16:44:51 10° NW 16:51:21 38° NNE 16:57:12 14° E
Cosmos 1844 Rocket 4.1 16:48:11 10° SE 16:51:45 17° E 16:53:43 15° ENE
SKYMED 2 4.2 16:50:15 10° NNE 16:54:13 34° E 16:58:11 10° SSE
Cosmos 2228 2.9 16:50:45 10° N 16:55:02 79° E 16:59:18 10° SSE
NOSS 3-4 (A) 3.8 16:50:59 10° WSW 16:56:53 62° NW 17:02:57 12° NE
NOSS 3-4 (C) 3.8 16:51:07 10° WSW 16:57:02 62° NW 17:03:05 12° NE
CZ-4B R/B 3.8 16:52:52 10° S 16:58:21 64° WSW 17:03:59 10° NNW
Cosmos 1503 Rocket 4.0 16:53:02 10° SSW 16:58:24 82° ESE 17:03:49 10° NNE
CZ-2C R/B 3.2 16:55:40 10° SE 17:00:50 57° ENE 17:06:21 10° N
Helios 1A Rocket 3.8 16:59:21 10° ESE 17:02:55 29° ENE 17:06:30 10° N
SJ 16-02 2.9 17:00:46 10° SE 17:03:17 16° E 17:03:17 16° E
YAOGAN 3 4.5 16:59:46 10° SSE 17:04:07 73° ENE 17:08:29 10° N
Cosmos 1626 2.5 17:02:25 10° SSW 17:06:04 65° WNW 17:09:47 10° N
Cosmos 2297 Rocket 3.9 17:01:34 10° W 17:06:17 26° NW 17:11:00 10° NNE
NOSS 3-1 (A) 4.4 17:00:30 10° NW 17:06:50 40° NNE 17:12:14 18° E
Cosmos 2058 Rocket 3.2 17:03:18 10° N 17:07:42 51° ENE 17:12:06 10° SSE
CZ-2D R/B 3.2 17:04:21 10° SSE 17:08:10 64° ENE 17:12:00 10° N
RESURS DK-1 2.5 17:05:36 10° SW 17:09:44 72° NW 17:13:23 13° NNE
H-2A R/B 2.3 17:05:13 10° SE 17:09:53 41° ENE 17:14:41 10° N
ATLAS 2AS CENTAUR R/B 3.3 17:06:39 10° WSW 17:14:35 68° NW 17:21:25 14° NE
Meteor 2-10 Rocket 3.6 17:09:00 10° N 17:14:36 66° ENE 17:19:56 10° SSE
SL-14 R/B 3.5 17:10:58 10° SSW 17:14:49 70° WNW 17:18:45 10° N
CSL-04 Rocket 4.2 17:11:56 10° SE 17:16:51 37° ENE 17:21:51 10° N
Cosmos 1680 Rocket 4.1 17:12:24 10° NNW 17:17:13 34° NE 17:20:14 19° ESE
CREW DRAGON DEMO-1 DEB 2.7 17:14:31 10° W 17:17:25 77° S 17:18:28 35° ESE
Cosmos 773 Rocket 4.4 17:14:27 10° NNW 17:19:35 64° WSW 17:24:39 10° S
Okean 1-7 Rocket 4.1 17:16:28 10° SSE 17:20:41 40° E 17:24:24 13° NNE
Meteor 2-5 Rocket 3.8 17:15:07 10° SSW 17:20:42 78° WNW 17:26:16 10° N
CZ-4B R/B 1.3 17:18:38 14° NNE 17:21:32 69° ESE 17:24:51 10° S
ATLAS 5 CENTAUR R/B 1.4 17:17:34 10° SW 17:21:39 83° SE 17:24:28 23° NE
SAR-Lupe-4 4.4 17:22:24 29° E 17:22:24 29° E 17:25:27 10° SSE
SeaSat 1 4.3 17:18:29 10° NNE 17:22:24 24° NW 17:26:17 10° W
Cosmos 158 Rocket 4.2 17:18:06 10° NNW 17:23:15 49° ENE 17:28:29 10° SE
Cosmos 1726 Rocket 3.8 17:21:39 10° NNW 17:26:01 73° W 17:30:22 10° S
SL-08 RB Rocket 4.3 17:33:54 32° ENE 17:34:18 33° ENE 17:38:20 10° N
Cosmos 2279 Rocket 4.5 17:31:44 10° NNW 17:37:56 63° W 17:44:05 10° S
PSLV R/B 4.1 17:37:51 30° NE 17:39:35 49° E 17:43:41 10° S
Aureole 3 3.0 17:35:55 10° N 17:39:45 56° ENE 17:40:37 41° SE
Cosmos 2263 Rocket 2.6 17:34:27 10° SW 17:40:06 65° NW 17:45:02 14° NNE
USA 234 3.3 17:37:30 26° E 17:41:20 66° NNE 17:47:50 10° WNW
Cosmos 1455 2.1 17:38:01 10° N 17:41:48 63° ENE 17:45:35 10° SSE
COSMOS 2406 4.0 17:37:18 10° NNW 17:42:26 31° NE 17:43:21 30° ENE
COSMO-SKYMED 1 2.5 17:38:07 10° NNE 17:42:30 87° WNW 17:46:51 10° SSW
COSMOS 2455 2.9 17:40:49 10° SSW 17:46:42 59° ESE 17:49:35 30° NE
Cosmos 1689 Rocket 4.5 17:50:14 14° S 17:50:14 14° S 17:50:44 10° S
Iridium 4 Rocket 3.9 17:42:47 10° N 17:48:22 45° ENE 17:53:33 10° SSE
Cosmos 1538 Rocket 4.5 17:44:55 10° NNW 17:50:02 61° WSW 17:55:06 10° S
Okean-O 2.6 17:46:27 10° SSE 17:50:53 85° WSW 17:55:21 10° NNW
Cosmos 2112 Rocket 4.1 17:49:21 10° NNW 17:54:32 52° ENE 17:55:57 40° ESE
MOS 1 Rocket 3.0 17:51:43 12° NNE 17:55:49 84° WNW 18:00:06 10° SSW
Okean O Rocket 4.3 17:52:43 10° SW 17:56:05 21° W 17:59:27 10° NW
ARGOS 3.0 17:51:51 10° SSE 17:57:11 72° ENE 18:02:34 10° NNW
CZ-4 R/B 1.8 17:53:42 10° S 17:57:48 65° W 18:01:50 10° NNW
Aureole 2 Rocket 4.2 17:55:25 10° S 17:56:24 19° S 17:56:24 19° S
Cosmos 1777 Rocket 4.0 17:53:21 10° SSW 17:58:39 84° WNW 18:02:07 22° NNE
Meteor 1-24 Rocket 4.4 17:53:50 10° SSW 17:59:01 50° WNW 18:04:12 10° N
CZ-2C R/B 3.5 18:04:57 32° SE 18:04:57 32° SE 18:08:32 10° SSE
ERS-2 2.1 18:03:35 56° N 18:04:16 77° WNW 18:07:53 10° SSW
CSL-04 Debris 4.0 17:58:58 10° SSE 18:04:22 83° ENE 18:09:47 10° NNW
Meteor 2-8 Rocket 4.4 17:58:24 10° N 18:04:26 61° ENE 18:10:28 10° SSE
Cosmos 1844 3.8 18:04:13 10° S 18:09:38 50° ESE 18:09:55 49° ESE
Cosmos 2082 Rocket 3.4 18:05:41 10° NNW 18:09:49 26° NNE 18:09:49 26° NNE
Cosmos 1833 Rocket 3.3 18:05:40 10° NNW 18:10:32 38° NE 18:10:32 38° NE
BREEZE-M DEB (TANK) 4.2 18:10:07 10° W 18:11:06 23° WSW 18:11:06 23° WSW
H-2A R/B 4.5 18:13:03 10° N 18:16:30 22° WNW 18:19:53 10° WSW
YAOGAN 1 3.5 18:14:58 10° S 18:19:10 48° W 18:23:23 10° NNW
Cosmos 1092 Rocket 3.8 18:15:54 10° S 18:22:03 72° E 18:28:13 10° NNE
Meteor 1-21 Rocket 4.0 18:20:45 10° S 18:26:16 89° E 18:29:34 26° NNE
NOSS 3-1 (C) 3.9 18:19:32 10° NW 18:26:45 83° NE 18:30:09 40° SE
Cosmos 2227 Rocket 4.5 18:23:57 10° NW 18:27:08 15° NNW 18:30:09 10° N
Cosmos 1812 Rocket 4.3 18:26:49 10° NNW 18:29:55 45° NNW 18:29:55 45° NNW
CZ-4C R/B 3.5 18:26:34 10° W 18:31:43 35° NNW 18:33:52 28° NNE
ISS -0.9 18:30:09 10° SSW 18:30:32 12° SSW 18:30:32 12° SSW
Lacrosse 5 2.8 18:29:23 10° WNW 18:34:10 44° SW 18:35:29 36° S
Cosmos 1844 Rocket 2.5 18:29:10 10° SSW 18:34:50 86° ESE 18:35:26 72° NE
Helios 1A Rocket 4.4 18:34:08 10° SSW 18:37:58 37° W 18:41:51 10° NNW
Nadezhda 4 Rocket 4.5 18:34:31 10° SSW 18:40:40 59° WNW 18:46:49 10° N
SJ 16-02 2.1 18:37:05 10° SSW 18:40:20 48° SW 18:40:20 48° SW
USA 229 DEB 3.7 18:35:59 10° NW 18:43:12 80° NE 18:44:38 61° ESE
USA 229 3.7 18:36:05 10° NW 18:43:18 79° NE 18:44:41 62° ESE
Ariane Rocket 4.4 18:47:26 28° N 18:47:26 28° N 18:49:49 10° N
USA 281 3.7 18:47:26 43° NNE 18:47:26 43° NNE 18:52:36 10° NNW
USA 267 3.8 18:48:30 41° SSE 18:48:30 41° SSE 18:53:38 10° SSW
H-2A R/B 3.6 18:44:55 10° SSW 18:49:25 34° W 18:54:04 10° NNW
NOSS 3-1 (A) 3.9 18:51:29 10° NW 18:58:44 83° NE 18:59:43 71° ESE
Cosmos 1680 Rocket 4.3 18:54:28 10° NW 18:59:30 47° WSW 19:00:38 41° SW
Cosmos 2344 4.2 18:54:37 10° NW 19:03:37 85° SW 19:08:27 42° SE
Cosmos 1818 4.2 19:01:12 10° SW 19:05:20 53° WSW 19:05:20 53° WSW
ATLAS 5 CENTAUR R/B 3.4 19:02:58 10° W 19:06:01 28° NW 19:06:01 28° NW
ATLAS 2AS CENTAUR R/B 3.9 18:59:37 10° W 19:06:52 37° NNW 19:08:51 33° NNE
Cosmos 2098 Rocket 4.3 19:00:49 10° S 19:07:57 88° WNW 19:15:27 10° N
Cosmos 1553 Rocket 4.1 19:04:06 10° NNW 19:09:59 74° NW 19:09:59 74° NW
Cosmos 2026 Rocket 4.3 19:11:53 10° SSW 19:17:56 63° WNW 19:24:07 10° N
USA 234 3.4 19:24:50 68° WSW 19:24:50 68° WSW 19:30:57 10° WNW
Cosmos 2263 Rocket 4.2 19:21:02 10° WNW 19:25:10 20° NNW 19:26:44 18° N
COSMOS 2406 4.2 19:21:28 10° NW 19:25:26 44° NW 19:25:26 44° NW
COSMOS 2455 3.9 19:27:15 10° WSW 19:32:46 41° NW 19:32:46 41° NW
Cosmos 1833 Rocket 4.5 19:49:37 10° NW 19:52:15 27° NW 19:52:15 27° NW
Cosmos 2082 Rocket 4.1 19:49:33 10° NNW 19:51:41 24° NNW 19:51:41 24° NNW
CZ-4C R/B 4.4 20:16:24 10° NW 20:19:03 23° NNW 20:19:03 23° NNW
